QPF
0.04 0.06 0.04 0.04 0.03 0.04 0.04 0.03 0.03 0.03 0.03 0.04 0.03 0.03 0.02 0.03 0.02 0.02 0.01 0.02 0.03 0.02 0.03 0.04 0.05 0.05 0.04 0.03 0.02 0.02 0.02 0.02 0.02 0.02 0.02 0.01 0.01 0.01 0.02 0.02 0.03 0.02 0.02
0.04 0.07 0.06 0.04 0.04 0.05 0.07 0.05 0.05 0.04 0.04 0.04 0.04 0.03 0.02 0.03 0.03 0.04 0.02 0.02 0.03 0.03 0.03 0.03 0.03 0.03 0.03 0.03 0.03 0.03 0.02 0.01 0.01 0.01 0.01 0.01 0.01 0.02 0.02 0.01 0.02 0.03 0.02
0.02 0.04 0.05 0.06 0.06 0.06 0.06 0.05 0.04 0.03 0.04 0.05 0.05 0.04 0.03 0.03 0.04 0.06 0.05 0.04 0.04 0.04 0.03 0.03 0.02 0.02 0.02 0.03 0.02 0.03 0.02 0.01 0.01 0.01 0.01 0.01 0.01 0.01 0.01 0.01 0.02 0.03 0.02
0.03 0.04 0.04 0.05 0.06 0.05 0.05 0.05 0.05 0.04 0.03 0.04 0.05 0.05 0.04 0.04 0.05 0.07 0.05 0.03 0.03 0.04 0.03 0.03 0.02 0.03 0.02 0.02 0.03 0.03 0.02 0.02 0.01 0.01 0.02 0.03 0.03 0.01 0.01 0.02 0.03 0.02 0.03
0.03 0.03 0.05 0.05 0.05 0.05 0.04 0.05 0.05 0.04 0.04 0.03 0.04 0.06 0.05 0.04 0.05 0.05 0.03 0.03 0.02 0.03 0.02 0.02 0.02 0.02 0.02 0.02 0.02 0.02 0.02 0.02 0.01 0.01 0.02 0.02 0.04 0.04 0.03 0.04 0.04 0.03 0.03
0.02 0.02 0.04 0.05 0.05 0.05 0.04 0.04 0.04 0.04 0.05 0.04 0.05 0.05 0.06 0.06 0.03 0.03 0.02 0.02 0.02 0.02 0.01 0.02 0.02 0.01 0.01 0.01 0.01 0.01 0.01 0.01 0.01 0.01 0.02 0.02 0.03 0.05 0.05 0.05 0.05 0.04 0.03
0.01 0.02 0.03 0.04 0.04 0.04 0.05 0.04 0.04 0.04 0.05 0.05 0.06 0.05 0.06 0.07 0.06 0.05 0.03 0.02 0.02 0.02 0.01 0.02 0.02 0.02 0.01 0.01 0.01 0.01 0.01 0.00 0.01 0.01 0.02 0.04 0.04 0.04 0.05 0.05 0.05 0.04 0.03
0.02 0.02 0.02 0.03 0.03 0.03 0.03 0.03 0.04 0.05 0.04 0.04 0.05 0.05 0.04 0.05 0.06 0.06 0.04 0.03 0.03 0.02 0.01 0.02 0.03 0.02 0.01 0.01 0.01 0.01 0.01 0.00 0.01 0.01 0.03 0.04 0.04 0.04 0.06 0.05 0.04 0.03 0.04
0.01 0.02 0.02 0.02 0.02 0.03 0.03 0.03 0.03 0.03 0.03 0.03 0.04 0.05 0.04 0.04 0.04 0.05 0.05 0.03 0.03 0.02 0.02 0.02 0.02 0.02 0.01 0.01 0.01 0.00 0.00 0.00 0.00 0.01 0.02 0.03 0.03 0.03 0.05 0.07 0.05 0.03 0.04
0.02 0.02 0.01 0.01 0.02 0.02 0.03 0.03 0.02 0.03 0.02 0.03 0.03 0.02 0.01 0.02 0.03 0.03 0.03 0.02 0.02 0.02 0.02 0.02 0.02 0.02 0.02 0.01 0.01 0.00 0.00 0.00 0.00 0.01 0.02 0.01 0.02 0.02 0.04 0.07 0.06 0.04 0.03
0.02 0.03 0.03 0.02 0.02 0.02 0.02 0.02 0.02 0.03 0.03 0.03 0.02 0.02 0.02 0.03 0.03 0.03 0.02 0.01 0.01 0.01 0.01 0.01 0.02 0.02 0.02 0.01 0.01 0.00 0.00 0.01 0.02 0.01 0.01 0.02 0.03 0.02 0.04 0.05 0.06 0.05 0.04
0.02 0.02 0.03 0.03 0.03 0.03 0.02 0.02 0.03 0.03 0.04 0.04 0.04 0.05 0.05 0.06 0.06 0.04 0.02 0.01 0.01 0.01 0.01 0.02 0.01 0.02 0.02 0.02 0.01 0.01 0.01 0.02 0.03 0.02 0.01 0.02 0.03 0.02 0.04 0.05 0.05 0.06 0.04
0.03 0.04 0.03 0.04 0.04 0.03 0.03 0.03 0.03 0.03 0.03 0.04 0.03 0.04 0.05 0.06 0.06 0.05 0.03 0.02 0.01 0.01 0.02 0.02 0.02 0.02 0.03 0.03 0.03 0.02 0.02 0.02 0.03 0.03 0.03 0.03 0.03 0.02 0.03 0.05 0.05 0.06 0.05
0.03 0.04 0.04 0.05 0.06 0.05 0.04 0.03 0.03 0.03 0.03 0.03 0.02 0.03 0.03 0.04 0.05 0.06 0.05 0.03 0.02 0.02 0.04 0.04 0.03 0.02 0.02 0.03 0.03 0.03 0.02 0.03 0.03 0.03 0.03 0.03 0.02 0.02 0.03 0.04 0.04 0.04 0.05
0.02 0.03 0.03 0.04 0.06 0.06 0.05 0.03 0.03 0.03 0.03 0.03 0.02 0.02 0.02 0.03 0.04 0.08 0.08 0.07 0.04 0.03 0.03 0.03 0.03 0.03 0.03 0.04 0.04 0.03 0.03 0.02 0.03 0.03 0.02 0.01 0.01 0.02 0.02 0.04 0.06 0.05 0.04
0.02 0.03 0.04 0.04 0.05 0.06 0.06 0.04 0.04 0.03 0.03 0.03 0.02 0.02 0.01 0.02 0.02 0.05 0.07 0.08 0.08 0.05 0.03 0.03 0.03 0.03 0.04 0.05 0.04 0.03 0.03 0.03 0.03 0.02 0.02 0.01 0.01 0.01 0.02 0.03 0.04 0.05 0.06
0.01 0.02 0.04 0.05 0.06 0.06 0.07 0.07 0.05 0.04 0.03 0.02 0.02 0.02 0.01 0.01 0.02 0.02 0.05 0.07 0.07 0.06 0.05 0.04 0.03 0.03 0.03 0.04 0.06 0.05 0.04 0.03 0.03 0.02 0.02 0.02 0.01 0.01 0.01 0.01 0.02 0.04 0.06
0.01 0.02 0.03 0.04 0.05 0.06 0.08 0.09 0.08 0.06 0.04 0.03 0.02 0.02 0.01 0.01 0.01 0.02 0.02 0.03 0.05 0.05 0.05 0.04 0.03 0.03 0.04 0.04 0.06 0.06 0.05 0.04 0.03 0.02 0.02 0.02 0.02 0.01 0.01 0.01 0.01 0.03 0.04
0.01 0.02 0.03 0.04 0.05 0.05 0.08 0.11 0.10 0.10 0.07 0.04 0.03 0.01 0.01 0.01 0.01 0.01 0.01 0.01 0.03 0.05 0.05 0.04 0.03 0.03 0.03 0.04 0.04 0.05 0.06 0.06 0.04 0.03 0.02 0.02 0.02 0.02 0.02 0.01 0.01 0.01 0.03
0.01 0.01 0.03 0.03 0.04 0.05 0.06 0.09 0.12 0.10 0.07 0.04 0.03 0.03 0.02 0.01 0.02 0.01 0.01 0.01 0.02 0.03 0.05 0.05 0.04 0.03 0.03 0.04 0.04 0.03 0.04 0.06 0.06 0.04 0.03 0.02 0.02 0.02 0.02 0.02 0.01 0.01 0.02
0.01 0.01 0.02 0.03 0.04 0.04 0.05 0.05 0.07 0.10 0.07 0.05 0.03 0.03 0.03 0.03 0.03 0.03 0.02 0.02 0.02 0.02 0.03 0.04 0.04 0.04 0.03 0.04 0.04 0.03 0.03 0.03 0.05 0.05 0.04 0.03 0.02 0.02 0.02 0.03 0.03 0.03 0.03
0.01 0.01 0.01 0.02 0.03 0.04 0.04 0.04 0.04 0.05 0.06 0.05 0.04 0.02 0.02 0.02 0.03 0.04 0.04 0.03 0.03 0.02 0.02 0.02 0.03 0.04 0.03 0.03 0.05 0.04 0.03 0.03 0.03 0.03 0.03 0.02 0.02 0.02 0.02 0.02 0.03 0.03 0.03
0.01 0.01 0.01 0.02 0.02 0.03 0.04 0.04 0.04 0.03 0.03 0.03 0.03 0.02 0.01 0.01 0.01 0.02 0.04 0.05 0.05 0.04 0.04 0.03 0.03 0.03 0.03 0.03 0.05 0.05 0.04 0.03 0.02 0.02 0.02 0.02 0.02 0.02 0.02 0.02 0.02 0.03 0.03
0.00 0.01 0.02 0.02 0.02 0.02 0.03 0.04 0.04 0.03 0.03 0.03 0.03 0.02 0.02 0.01 0.00 0.01 0.02 0.03 0.03 0.04 0.04 0.05 0.05 0.04 0.04 0.03 0.03 0.04 0.05 0.04 0.03 0.03 0.02 0.02 0.02 0.02 0.02 0.02 0.02 0.02 0.02
0.00 0.00 0.01 0.01 0.01 0.02 0.02 0.03 0.03 0.03 0.02 0.02 0.03 0.03 0.02 0.01 0.00 0.00 0.01 0.02 0.02 0.03 0.03 0.03 0.04 0.04 0.04 0.04 0.04 0.03 0.04 0.05 0.04 0.04 0.03 0.02 0.02 0.02 0.02 0.03 0.02 0.02 0.02
0.00 0.00 0.00 0.00 0.01 0.01 0.01 0.02 0.03 0.02 0.02 0.01 0.02 0.02 0.02 0.02 0.01 0.01 0.01 0.01 0.01 0.02 0.03 0.03 0.02 0.03 0.03 0.03 0.04 0.05 0.05 0.04 0.04 0.05 0.04 0.03 0.03 0.03 0.02 0.03 0.02 0.02 0.02
MSLP
1019.19 1018.93 1018.67 1018.46 1018.30 1018.19 1018.08 1017.94 1017.74 1017.46 1017.14 1016.79 1016.48 1016.24 1016.10 1016.06 1016.10 1016.18 1016.27 1016.34 1016.38 1016.39 1016.39 1016.40 1016.43 1016.50 1016.59 1016.68 1016.74 1016.76 1016.72 1016.63 1016.51 1016.38 1016.26 1016.17 1016.10 1016.06 1016.03 1016.00 1015.97 1015.94 1015.92
1019.03 1018.80 1018.58 1018.41 1018.28 1018.18 1018.07 1017.91 1017.67 1017.35 1016.99 1016.62 1016.31 1016.10 1016.00 1016.01 1016.11 1016.26 1016.40 1016.51 1016.58 1016.61 1016.62 1016.64 1016.68 1016.74 1016.81 1016.88 1016.91 1016.89 1016.82 1016.71 1016.57 1016.44 1016.33 1016.26 1016.22 1016.22 1016.22 1016.22 1016.20 1016.17 1016.15
1018.90 1018.70 1018.53 1018.39 1018.29 1018.21 1018.09 1017.90 1017.64 1017.30 1016.92 1016.55 1016.25 1016.05 1015.99 1016.03 1016.16 1016.33 1016.50 1016.63 1016.71 1016.75 1016.77 1016.80 1016.84 1016.89 1016.95 1017.00 1017.00 1016.96 1016.86 1016.73 1016.59 1016.47 1016.39 1016.36 1016.36 1016.40 1016.43 1016.44 1016.43 1016.40 1016.36
1018.80 1018.64 1018.51 1018.41 1018.34 1018.27 1018.15 1017.96 1017.68 1017.33 1016.95 1016.60 1016.31 1016.13 1016.07 1016.13 1016.25 1016.41 1016.57 1016.68 1016.76 1016.80 1016.83 1016.87 1016.92 1016.98 1017.05 1017.08 1017.08 1017.02 1016.91 1016.78 1016.65 1016.55 1016.50 1016.51 1016.55 1016.61 1016.67 1016.69 1016.67 1016.62 1016.56
1018.72 1018.62 1018.53 1018.47 1018.43 1018.37 1018.25 1018.07 1017.80 1017.46 1017.10 1016.76 1016.49 1016.33 1016.26 1016.29 1016.39 1016.50 1016.61 1016.69 1016.75 1016.78 1016.82 1016.88 1016.96 1017.05 1017.13 1017.17 1017.17 1017.11 1017.01 1016.89 1016.78 1016.71 1016.69 1016.73 1016.80 1016.88 1016.94 1016.96 1016.92 1016.85 1016.77
1018.68 1018.63 1018.58 1018.56 1018.54 1018.49 1018.39 1018.22 1017.97 1017.66 1017.33 1017.03 1016.78 1016.61 1016.53 1016.53 1016.56 1016.62 1016.66 1016.69 1016.71 1016.74 1016.79 1016.88 1016.99 1017.12 1017.23 1017.30 1017.32 1017.27 1017.18 1017.08 1016.98 1016.94 1016.95 1017.01 1017.10 1017.18 1017.23 1017.23 1017.18 1017.08 1016.98
1018.67 1018.66 1018.65 1018.65 1018.65 1018.62 1018.54 1018.38 1018.16 1017.89 1017.60 1017.34 1017.12 1016.96 1016.86 1016.81 1016.79 1016.77 1016.75 1016.72 1016.71 1016.72 1016.79 1016.90 1017.05 1017.22 1017.37 1017.47 1017.51 1017.48 1017.41 1017.32 1017.25 1017.22 1017.25 1017.31 1017.40 1017.48 1017.52 1017.50 1017.42 1017.31 1017.19
1018.69 1018.71 1018.73 1018.75 1018.76 1018.74 1018.67 1018.54 1018.35 1018.12 1017.88 1017.66 1017.47 1017.33 1017.23 1017.14 1017.06 1016.98 1016.89 1016.81 1016.77 1016.77 1016.84 1016.97 1017.16 1017.35 1017.53 1017.66 1017.71 1017.70 1017.64 1017.57 1017.51 1017.50 1017.53 1017.60 1017.69 1017.75 1017.77 1017.73 1017.64 1017.51 1017.39
1018.73 1018.77 1018.81 1018.85 1018.88 1018.86 1018.80 1018.68 1018.52 1018.33 1018.14 1017.97 1017.82 1017.71 1017.61 1017.51 1017.40 1017.27 1017.13 1017.00 1016.92 1016.90 1016.97 1017.10 1017.30 1017.51 1017.69 1017.83 1017.89 1017.89 1017.84 1017.77 1017.73 1017.72 1017.76 1017.83 1017.91 1017.96 1017.97 1017.91 1017.80 1017.67 1017.55
1018.76 1018.83 1018.91 1018.96 1019.00 1018.99 1018.93 1018.82 1018.68 1018.53 1018.38 1018.26 1018.16 1018.08 1018.01 1017.91 1017.78 1017.63 1017.45 1017.29 1017.18 1017.13 1017.17 1017.29 1017.46 1017.66 1017.83 1017.96 1018.02 1018.01 1017.96 1017.91 1017.87 1017.87 1017.92 1017.99 1018.06 1018.11 1018.11 1018.04 1017.93 1017.79 1017.68
1018.78 1018.89 1019.00 1019.09 1019.13 1019.13 1019.08 1018.98 1018.85 1018.72 1018.61 1018.54 1018.49 1018.45 1018.41 1018.33 1018.22 1018.05 1017.86 1017.68 1017.52 1017.44 1017.44 1017.52 1017.65 1017.81 1017.95 1018.04 1018.08 1018.07 1018.02 1017.97 1017.95 1017.97 1018.03 1018.11 1018.18 1018.23 1018.22 1018.15 1018.03 1017.90 1017.77
1018.76 1018.92 1019.08 1019.21 1019.28 1019.30 1019.25 1019.16 1019.05 1018.94 1018.86 1018.82 1018.82 1018.82 1018.82 1018.78 1018.68 1018.53 1018.33 1018.13 1017.95 1017.82 1017.77 1017.79 1017.86 1017.96 1018.05 1018.10 1018.12 1018.09 1018.05 1018.01 1018.01 1018.05 1018.13 1018.23 1018.31 1018.36 1018.35 1018.28 1018.15 1018.00 1017.86
1018.66 1018.90 1019.12 1019.30 1019.42 1019.47 1019.45 1019.38 1019.29 1019.20 1019.14 1019.13 1019.16 1019.20 1019.23 1019.23 1019.16 1019.02 1018.84 1018.62 1018.42 1018.26 1018.15 1018.11 1018.11 1018.14 1018.17 1018.18 1018.17 1018.13 1018.09 1018.08 1018.10 1018.17 1018.27 1018.39 1018.49 1018.54 1018.53 1018.45 1018.32 1018.15 1017.98
1018.47 1018.79 1019.08 1019.34 1019.52 1019.62 1019.65 1019.61 1019.55 1019.48 1019.45 1019.46 1019.51 1019.58 1019.64 1019.67 1019.63 1019.52 1019.34 1019.13 1018.92 1018.73 1018.57 1018.47 1018.41 1018.38 1018.35 1018.32 1018.28 1018.23 1018.21 1018.21 1018.26 1018.36 1018.49 1018.63 1018.74 1018.80 1018.79 1018.70 1018.55 1018.36 1018.16
1018.19 1018.57 1018.94 1019.27 1019.53 1019.70 1019.79 1019.81 1019.80 1019.77 1019.77 1019.80 1019.87 1019.96 1020.04 1020.08 1020.07 1019.99 1019.84 1019.64 1019.43 1019.22 1019.04 1018.90 1018.78 1018.69 1018.62 1018.55 1018.48 1018.43 1018.40 1018.42 1018.49 1018.61 1018.77 1018.93 1019.05 1019.13 1019.12 1019.02 1018.86 1018.64 1018.41
1017.82 1018.24 1018.67 1019.07 1019.40 1019.66 1019.84 1019.94 1020.00 1020.03 1020.07 1020.13 1020.22 1020.32 1020.41 1020.47 1020.48 1020.42 1020.30 1020.13 1019.94 1019.74 1019.54 1019.38 1019.23 1019.10 1018.98 1018.87 1018.78 1018.71 1018.68 1018.70 1018.78 1018.92 1019.08 1019.25 1019.39 1019.47 1019.47 1019.38 1019.21 1018.98 1018.73
1017.42 1017.85 1018.30 1018.74 1019.15 1019.49 1019.77 1019.97 1020.12 1020.23 1020.33 1020.44 1020.55 1020.67 1020.77 1020.84 1020.86 1020.83 1020.74 1020.61 1020.44 1020.26 1020.08 1019.91 1019.74 1019.58 1019.43 1019.29 1019.16 1019.06 1019.01 1019.02 1019.09 1019.22 1019.38 1019.56 1019.71 1019.80 1019.81 1019.74 1019.58 1019.36 1019.10
1017.06 1017.44 1017.87 1018.33 1018.78 1019.20 1019.58 1019.89 1020.15 1020.37 1020.55 1020.72 1020.87 1021.00 1021.12 1021.20 1021.24 1021.24 1021.18 1021.09 1020.96 1020.81 1020.65 1020.49 1020.31 1020.13 1019.95 1019.77 1019.60 1019.46 1019.37 1019.34 1019.38 1019.49 1019.64 1019.81 1019.96 1020.07 1020.10 1020.06 1019.93 1019.73 1019.49
1016.83 1017.12 1017.48 1017.91 1018.38 1018.86 1019.33 1019.75 1020.14 1020.47 1020.75 1020.99 1021.19 1021.35 1021.49 1021.58 1021.64 1021.66 1021.64 1021.58 1021.50 1021.39 1021.26 1021.11 1020.93 1020.73 1020.52 1020.29 1020.08 1019.89 1019.74 1019.66 1019.66 1019.72 1019.84 1019.99 1020.14 1020.26 1020.33 1020.32 1020.24 1020.09 1019.89
1016.81 1016.98 1017.24 1017.61 1018.06 1018.56 1019.10 1019.63 1020.12 1020.57 1020.95 1021.28 1021.54 1021.75 1021.90 1022.02 1022.10 1022.14 1022.15 1022.13 1022.08 1022.01 1021.90 1021.76 1021.59 1021.37 1021.13 1020.87 1020.60 1020.36 1020.16 1020.02 1019.95 1019.97 1020.05 1020.17 1020.31 1020.43 1020.52 1020.55 1020.52 1020.42 1020.27
1017.07 1017.10 1017.24 1017.52 1017.92 1018.43 1019.00 1019.60 1020.19 1020.74 1021.22 1021.63 1021.95 1022.21 1022.40 1022.53 1022.63 1022.69 1022.72 1022.73 1022.71 1022.66 1022.58 1022.46 1022.28 1022.06 1021.80 1021.50 1021.20 1020.91 1020.65 1020.46 1020.33 1020.29 1020.32 1020.40 1020.51 1020.63 1020.72 1020.78 1020.79 1020.74 1020.64
1017.63 1017.55 1017.57 1017.75 1018.08 1018.55 1019.12 1019.76 1020.41 1021.03 1021.60 1022.07 1022.46 1022.76 1022.98 1023.14 1023.25 1023.33 1023.37 1023.40 1023.40 1023.36 1023.29 1023.18 1023.01 1022.79 1022.52 1022.21 1021.89 1021.57 1021.28 1021.04 1020.87 1020.77 1020.74 1020.77 1020.84 1020.93 1021.01 1021.06 1021.08 1021.06 1021.00
1018.49 1018.33 1018.27 1018.34 1018.59 1019.00 1019.54 1020.17 1020.84 1021.50 1022.11 1022.63 1023.06 1023.40 1023.65 1023.83 1023.95 1024.03 1024.08 1024.11 1024.11 1024.09 1024.02 1023.92 1023.76 1023.55 1023.29 1023.00 1022.68 1022.36 1022.07 1021.81 1021.60 1021.46 1021.38 1021.35 1021.35 1021.38 1021.42 1021.44 1021.45 1021.42 1021.37
1019.58 1019.40 1019.28 1019.29 1019.46 1019.79 1020.27 1020.86 1021.50 1022.15 1022.77 1023.31 1023.75 1024.11 1024.37 1024.56 1024.69 1024.77 1024.82 1024.84 1024.84 1024.80 1024.74 1024.64 1024.49 1024.31 1024.08 1023.82 1023.54 1023.26 1022.99 1022.74 1022.52 1022.35 1022.21 1022.12 1022.05 1022.01 1021.97 1021.93 1021.88 1021.82 1021.74
1020.80 1020.66 1020.54 1020.51 1020.61 1020.86 1021.26 1021.77 1022.35 1022.95 1023.53 1024.05 1024.50 1024.85 1025.11 1025.30 1025.43 1025.50 1025.54 1025.54 1025.52 1025.48 1025.40 1025.30 1025.17 1025.02 1024.84 1024.64 1024.42 1024.19 1023.97 1023.75 1023.54 1023.35 1023.18 1023.02 1022.88 1022.75 1022.62 1022.49 1022.36 1022.24 1022.11
1022.03 1021.99 1021.91 1021.88 1021.93 1022.12 1022.42 1022.84 1023.32 1023.85 1024.36 1024.83 1025.24 1025.57 1025.82 1026.00 1026.11 1026.17 1026.19 1026.18 1026.13 1026.06 1025.98 1025.87 1025.76 1025.63 1025.50 1025.36 1025.21 1025.06 1024.90 1024.73 1024.54 1024.35 1024.16 1023.95 1023.74 1023.52 1023.29 1023.07 1022.86 1022.65 1022.46
Thickness
5698 5700 5700 5701 5702 5703 5703 5703 5703 5703 5704 5704 5704 5704 5704 5705 5705 5705 5706 5706 5707 5707 5707 5708 5708 5708 5709 5709 5710 5710 5710 5711 5712 5712 5713 5713 5714 5714 5714 5715 5715 5715 5715
5695 5696 5697 5698 5699 5699 5699 5699 5699 5699 5700 5700 5700 5700 5701 5701 5701 5702 5702 5702 5703 5703 5704 5704 5705 5705 5705 5705 5706 5707 5707 5708 5708 5709 5709 5710 5710 5711 5711 5712 5712 5712 5712
5691 5692 5693 5694 5694 5695 5695 5695 5695 5695 5696 5696 5696 5696 5696 5697 5697 5698 5698 5699 5699 5699 5700 5700 5701 5701 5701 5702 5702 5703 5704 5704 5705 5706 5706 5707 5707 5707 5708 5708 5709 5709 5709
5686 5686 5687 5688 5689 5690 5690 5690 5691 5691 5691 5691 5691 5691 5692 5692 5693 5694 5694 5694 5695 5695 5695 5696 5696 5697 5697 5698 5699 5699 5700 5701 5702 5703 5704 5704 5705 5704 5705 5705 5705 5705 5705
5680 5680 5680 5682 5683 5684 5685 5685 5685 5686 5686 5686 5686 5687 5687 5688 5688 5689 5689 5689 5690 5691 5691 5691 5692 5692 5693 5694 5695 5696 5696 5698 5699 5700 5701 5701 5701 5701 5701 5701 5701 5701 5702
5674 5674 5674 5676 5677 5678 5679 5680 5680 5680 5680 5681 5681 5682 5682 5683 5683 5684 5684 5684 5685 5686 5686 5687 5688 5688 5689 5690 5691 5692 5693 5694 5695 5696 5697 5697 5698 5697 5697 5698 5698 5698 5698
5667 5667 5668 5670 5671 5672 5673 5674 5674 5675 5675 5675 5676 5676 5677 5677 5678 5678 5679 5679 5680 5681 5682 5682 5683 5684 5685 5685 5686 5687 5689 5690 5691 5692 5693 5693 5694 5694 5693 5694 5694 5694 5693
5660 5660 5662 5663 5664 5664 5666 5667 5668 5668 5669 5669 5670 5670 5671 5672 5672 5672 5673 5674 5675 5676 5677 5677 5678 5679 5680 5681 5682 5683 5684 5685 5687 5688 5689 5689 5690 5690 5689 5689 5690 5690 5689
5652 5653 5654 5655 5656 5657 5658 5660 5661 5661 5662 5663 5663 5664 5665 5665 5666 5667 5667 5668 5669 5670 5671 5672 5673 5674 5675 5676 5677 5679 5680 5681 5682 5684 5685 5685 5686 5686 5686 5685 5685 5685 5685
5643 5644 5645 5646 5648 5650 5652 5653 5654 5654 5655 5656 5656 5657 5658 5659 5659 5660 5661 5662 5663 5665 5666 5667 5668 5669 5670 5671 5673 5674 5676 5677 5678 5679 5680 5680 5681 5682 5682 5681 5681 5681 5681
5632 5633 5635 5637 5639 5641 5644 5645 5646 5647 5647 5648 5649 5650 5651 5651 5652 5653 5655 5656 5657 5659 5660 5661 5662 5664 5665 5666 5668 5670 5671 5672 5673 5674 5675 5676 5677 5677 5677 5677 5676 5676 5676
5620 5622 5625 5627 5629 5631 5634 5636 5638 5639 5639 5640 5641 5641 5643 5644 5645 5646 5647 5649 5650 5652 5654 5655 5656 5658 5659 5661 5663 5665 5666 5667 5668 5669 5670 5671 5672 5672 5672 5672 5672 5672 5672
5608 5611 5614 5616 5619 5621 5624 5626 5628 5630 5631 5631 5632 5633 5634 5636 5636 5638 5639 5641 5643 5645 5646 5648 5650 5652 5654 5656 5658 5659 5661 5662 5663 5664 5665 5666 5667 5667 5667 5667 5667 5668 5667
5598 5600 5602 5605 5608 5611 5613 5616 5618 5620 5621 5621 5622 5623 5625 5626 5628 5629 5631 5632 5635 5637 5639 5641 5643 5646 5648 5650 5652 5654 5655 5656 5657 5658 5659 5660 5661 5661 5662 5662 5662 5663 5663
5586 5588 5591 5594 5597 5599 5602 5604 5607 5608 5609 5610 5611 5613 5615 5616 5618 5620 5622 5624 5626 5628 5631 5634 5636 5639 5641 5643 5645 5647 5649 5651 5651 5652 5652 5653 5654 5655 5656 5656 5657 5657 5658
5574 5576 5580 5582 5585 5588 5590 5592 5594 5596 5598 5599 5600 5601 5603 5605 5607 5609 5612 5614 5616 5619 5622 5625 5627 5630 5633 5635 5637 5640 5642 5643 5644 5645 5646 5647 5647 5648 5649 5650 5651 5651 5652
5562 5565 5567 5570 5573 5576 5578 5580 5582 5584 5585 5586 5588 5590 5592 5594 5596 5598 5601 5603 5606 5608 5611 5615 5618 5621 5624 5626 5628 5631 5633 5635 5637 5638 5639 5640 5640 5641 5642 5643 5644 5645 5645
5550 5553 5554 5557 5561 5563 5565 5567 5569 5571 5573 5573 5575 5578 5580 5582 5584 5587 5589 5591 5594 5597 5600 5603 5607 5610 5612 5615 5618 5621 5624 5627 5629 5631 5632 5633 5633 5634 5634 5635 5636 5637 5638
5538 5539 5541 5544 5547 5550 5552 5553 5555 5557 5559 5560 5562 5565 5567 5570 5572 5574 5577 5580 5583 5586 5589 5592 5595 5598 5601 5604 5607 5611 5614 5617 5619 5622 5624 5625 5626 5627 5627 5628 5629 5630 5631
5524 5526 5527 5530 5532 5535 5537 5539 5541 5543 5544 5546 5548 5551 5554 5556 5559 5561 5564 5567 5571 5574 5576 5580 5583 5586 5589 5592 5596 5599 5603 5606 5609 5612 5614 5616 5618 5619 5620 5621 5621 5622 5623
5510 5511 5514 5516 5518 5520 5522 5523 5525 5527 5528 5531 5534 5536 5539 5542 5545 5548 5551 5554 5557 5560 5563 5567 5570 5573 5576 5580 5583 5586 5591 5595 5599 5601 5604 5606 5608 5610 5611 5613 5614 5614 5615
5496 5496 5498 5500 5502 5504 5505 5507 5509 5511 5514 5517 5519 5521 5524 5527 5530 5534 5537 5540 5543 5547 5550 5553 5557 5559 5563 5567 5569 5572 5576 5582 5587 5592 5594 5596 5598 5600 5602 5604 5605 5606 5607
5482 5482 5484 5486 5487 5489 5491 5493 5495 5498 5500 5502 5505 5507 5510 5512 5515 5519 5523 5527 5530 5533 5536 5539 5543 5546 5549 5553 5557 5560 5563 5568 5572 5578 5583 5585 5588 5590 5592 5594 5596 5597 5598
5468 5469 5469 5471 5472 5474 5476 5478 5480 5482 5484 5486 5489 5492 5496 5498 5502 5505 5509 5512 5516 5519 5522 5526 5530 5532 5536 5540 5544 5549 5553 5557 5558 5563 5569 5573 5576 5579 5581 5583 5585 5587 5589
5454 5454 5455 5456 5457 5459 5460 5463 5465 5466 5469 5472 5475 5479 5482 5485 5488 5492 5495 5498 5501 5505 5508 5512 5516 5519 5522 5526 5530 5534 5539 5543 5548 5550 5554 5558 5562 5566 5569 5572 5574 5576 5578
5439 5440 5441 5441 5442 5444 5445 5447 5450 5452 5454 5458 5461 5464 5468 5472 5475 5478 5481 5485 5487 5490 5494 5498 5502 5506 5509 5513 5517 5520 5524 5529 5533 5536 5540 5544 5548 5553 5556 5560 5563 5565 5568